TimeCST,TemperatureF,Dew PointF,Humidity,Sea Level PressureIn,VisibilityMPH,Wind Direction,Wind SpeedMPH,Gust SpeedMPH,PrecipitationIn,Events,Conditions,WindDirDegrees,DateUTC
12:53 AM,37.0,36.0,96,29.71,3.0,WSW,8.1,-,N/A,,Overcast,250,2013-12-22 06:53:00
1:12 AM,37.0,36.0,96,29.72,3.0,West,9.2,-,N/A,,Overcast,260,2013-12-22 07:12:00
1:21 AM,37.0,36.0,96,29.72,2.0,West,10.4,-,N/A,,Overcast,260,2013-12-22 07:21:00
1:44 AM,37.0,36.0,96,29.73,3.0,West,10.4,-,N/A,,Overcast,260,2013-12-22 07:44:00
1:51 AM,37.4,35.6,93,29.73,2.5,WSW,10.4,-,N/A,,Overcast,240,2013-12-22 07:51:00
1:53 AM,37.0,36.0,96,29.73,3.0,WSW,10.4,-,N/A,,Overcast,240,2013-12-22 07:53:00
2:53 AM,37.0,36.0,96,29.74,10.0,SSW,6.9,-,N/A,,Overcast,200,2013-12-22 08:53:00
3:53 AM,37.9,37.0,97,29.76,5.0,SSW,5.8,-,N/A,,Overcast,210,2013-12-22 09:53:00
4:53 AM,39.0,37.9,96,29.78,4.0,South,3.5,-,N/A,,Overcast,190,2013-12-22 10:53:00
5:17 AM,39.0,37.9,96,29.78,2.5,SW,3.5,-,N/A,,Overcast,230,2013-12-22 11:17:00
5:27 AM,39.9,39.0,97,29.79,3.0,SSW,4.6,-,N/A,,Overcast,200,2013-12-22 11:27:00
5:44 AM,39.9,39.0,97,29.80,2.5,WSW,4.6,-,N/A,,Overcast,240,2013-12-22 11:44:00
5:53 AM,39.9,39.0,97,29.81,1.8,WSW,3.5,-,N/A,,Overcast,250,2013-12-22 11:53:00
6:11 AM,39.9,39.9,100,29.81,2.5,Calm,Calm,-,N/A,,Overcast,0,2013-12-22 12:11:00
6:29 AM,39.9,39.0,97,29.83,1.8,South,3.5,-,N/A,,Overcast,190,2013-12-22 12:29:00
6:53 AM,39.9,39.9,100,29.84,1.8,SSE,3.5,-,N/A,,Overcast,160,2013-12-22 12:53:00
7:01 AM,39.9,39.9,100,29.83,3.0,Calm,Calm,-,N/A,,Overcast,0,2013-12-22 13:01:00
7:19 AM,41.0,39.0,93,29.84,8.0,West,3.5,-,N/A,,Overcast,270,2013-12-22 13:19:00
7:53 AM,41.0,39.9,96,29.86,9.0,WSW,5.8,-,N/A,,Overcast,250,2013-12-22 13:53:00
8:04 AM,42.1,41.0,96,29.86,10.0,WSW,8.1,-,N/A,,Overcast,240,2013-12-22 14:04:00
8:16 AM,42.1,39.9,92,29.85,10.0,WSW,9.2,-,N/A,,Overcast,240,2013-12-22 14:16:00
8:53 AM,43.0,39.9,89,29.88,10.0,WSW,6.9,-,N/A,,Overcast,240,2013-12-22 14:53:00
9:08 AM,43.0,39.9,89,29.89,10.0,WSW,9.2,-,N/A,,Overcast,240,2013-12-22 15:08:00
9:53 AM,44.1,41.0,89,29.92,10.0,WSW,5.8,-,N/A,,Overcast,240,2013-12-22 15:53:00
10:00 AM,44.1,41.0,89,29.93,10.0,WSW,8.1,-,N/A,,Overcast,240,2013-12-22 16:00:00
10:53 AM,44.1,39.9,85,29.94,10.0,West,10.4,-,N/A,,Overcast,270,2013-12-22 16:53:00
11:24 AM,44.1,39.9,85,29.94,10.0,West,11.5,-,N/A,,Overcast,280,2013-12-22 17:24:00
11:53 AM,44.1,39.0,82,29.95,10.0,West,10.4,-,N/A,,Overcast,270,2013-12-22 17:53:00
12:07 PM,43.0,37.9,82,29.94,10.0,West,11.5,-,N/A,,Overcast,280,2013-12-22 18:07:00
12:53 PM,44.1,37.0,76,29.96,10.0,WNW,10.4,-,N/A,,Overcast,290,2013-12-22 18:53:00
1:53 PM,43.0,35.1,74,29.97,10.0,West,10.4,-,N/A,,Overcast,270,2013-12-22 19:53:00
2:24 PM,43.0,34.0,71,29.99,10.0,West,9.2,-,N/A,,Overcast,280,2013-12-22 20:24:00
2:44 PM,43.0,34.0,71,29.98,10.0,NW,9.2,-,N/A,,Overcast,320,2013-12-22 20:44:00
2:51 PM,42.8,33.8,70,29.99,10.0,NW,11.5,-,N/A,,Overcast,320,2013-12-22 20:51:00
2:53 PM,42.1,33.1,70,29.99,10.0,NW,11.5,-,N/A,,Overcast,310,2013-12-22 20:53:00
3:53 PM,39.9,32.0,73,30.03,10.0,NNW,17.3,-,N/A,,Overcast,330,2013-12-22 21:53:00
4:53 PM,37.9,30.9,76,30.06,10.0,NW,11.5,-,N/A,,Overcast,320,2013-12-22 22:53:00
5:53 PM,37.0,28.9,73,30.10,10.0,NNW,11.5,-,N/A,,Overcast,330,2013-12-22 23:53:00
6:06 PM,37.0,28.9,73,30.11,10.0,NNW,11.5,-,N/A,,Overcast,340,2013-12-23 00:06:00
6:53 PM,36.0,28.9,76,30.14,10.0,NW,10.4,-,N/A,,Overcast,320,2013-12-23 00:53:00
7:53 PM,35.1,28.9,78,30.15,10.0,NNW,9.2,-,N/A,,Overcast,330,2013-12-23 01:53:00
8:53 PM,35.1,28.0,76,30.18,10.0,NW,10.4,-,N/A,,Overcast,320,2013-12-23 02:53:00
9:53 PM,34.0,28.0,79,30.20,10.0,NW,12.7,-,N/A,,Overcast,320,2013-12-23 03:53:00
10:14 PM,34.0,28.0,79,30.21,10.0,NNW,12.7,-,N/A,,Overcast,330,2013-12-23 04:14:00
10:48 PM,33.8,28.4,81,30.23,10.0,NW,9.2,-,N/A,,Overcast,320,2013-12-23 04:48:00
10:53 PM,34.0,28.0,79,30.24,10.0,NW,11.5,-,N/A,,Overcast,320,2013-12-23 04:53:00
11:53 PM,33.1,27.0,78,30.26,10.0,NW,15.0,-,N/A,,Overcast,320,2013-12-23 05:53:00